星链-3704 (STARLINK-3704 )

导读 | 豆包AI

STARLINK-3704是美国SpaceX公司星链(Starlink)星座的组网卫星,于2022年3月9日发射入轨。星链星座旨在搭建全球低轨宽带互联网,该卫星属于量产型卫星,搭载Ku/Ka波段通信载荷,采用氪工质霍尔推进器,具备自主避撞能力,设计寿命约5-7年,退役后会主动离轨坠入大气层焚毁,为星链星座的全球覆盖提供支撑。

Basic Information
目录编号:
51959
目录名称:
STARLINK-3704
国际标识:
2022-025D
轨道中心:
EARTH
卫星名称:
星链-3704
卫星全名:
星链-3704 (STARLINK-3704 )
卫星状态:
在轨 (已飞行1466 天)
发射日期:
2022-03-09 UTC
国别 :
美国 (US)
星等 :
--
Orbit Information
数据来源 国际轨道数据 AOE轨道数据
星历时间 2026-03-15T00:00:02+0800
7小时前
查看轨道信息
2026-03-08T11:00:00+0800
6天前
查看轨道信息
半长轴 6894.046km 6925.34km
偏心率 0.0001592 0.0001062
轨道倾角 53.099° 53.056°
近地点辐角 96.310° 77.975°
升交点赤经 13.289° 42.870°
平近点角 113.834° 159.962°
近地点 514.811km 546.467km
远地点 517.007km 547.939km
周期 94.945分钟 95.592分钟
每日圈数 15.166715 15.064029
Detailed Information
固有亮度:
5
最大亮度:
2.5
卫星平台:
Starlink v1.5
覆盖范围:
全球
运营商:
太空探索技术公司
运营商所在国:
美国
制造商(研发单位):
太空探索技术公司
制造商所在国:
美国
使用方式:
暂无
Satellite Introduction
星链(Starlink)计划是由太空探索技术公司(SpaceX)提出的一个巨型低轨卫星互联网星座项目,计划在2019年至2024年间在太空搭建由约1.2万颗卫星组成的“星链”网络,其中1584颗将部署在地球上空550千米处的近地轨道,并从2020年开始工作。该卫星仍在工作。
2D Orbit Map
3D Orbit Map
Orbit Altitude Analysis Chart
Orbit Inclination Analysis Chart
Orbit Comprehensive Analysis Chart
View Comprehensive Chart